EW5383 Weather Reports


Display with metric or nautical units.
time (UTC)temp
F
wind
direction
speed
MPH
gust
MPH
rain 1hr
in
rain 24hr
in
rain mn
in
humidity
%
barometer
mb
20260507101513 0 0.0 0.0 0.00 0.00 0.00 1015.3
20260507100014 0 0.0 0.0 0.00 0.00 0.00 1015.1
20260507094605 0 0.0 0.0 0.00 0.00 0.00 1015.0
20260507093103 0 0.0 0.0 0.00 0.00 0.00 1015.1
20260507091556 0 0.0 0.0 0.00 0.00 0.00 1015.1
20260507090057 0 0.0 0.0 0.00 0.00 0.00 1014.8
20260507084549 0 0.0 0.0 0.00 0.00 0.00 1014.5
20260507083045 0 0.0 0.0 0.00 0.00 0.00 1014.3
20260507081539 0 0.0 0.0 0.00 0.00 0.00 1014.4
20260507080035 0 0.0 0.0 0.00 0.00 0.00 1014.4
20260507074530 0 0.0 0.0 0.00 0.00 0.00 1014.3
20260507073025 0 0.0 0.0 0.00 0.00 0.00 1014.2
20260507071525 0 0.0 0.0 0.00 0.00 0.00 1014.2
20260507070018 0 0.0 0.0 0.00 0.00 0.00 1014.5
20260507064513 0 0.0 0.0 0.00 0.00 0.00 1014.7
20260507063009 0 0.0 0.0 0.00 0.00 0.00 1015.1
20260507061505 0 0.0 0.0 0.00 0.00 0.00 1015.2
20260507060104 0 0.0 0.0 0.00 0.00 0.00 1015.5
20260507054614 0 0.0 0.0 0.00 0.00 0.00 1015.5
20260507053105 0 0.0 0.0 0.00 0.00 0.00 1015.8
20260507051556 0 0.0 0.0 0.00 0.00 0.00 1016.1
20260507050050 0 0.0 0.0 0.00 0.00 0.00 1016.3
20260507044549 0 0.0 0.0 0.00 0.00 0.00 1016.0
20260507043039 0 0.0 0.0 0.00 0.00 0.00 1016.1
20260507041535 0 0.0 0.0 0.00 0.00 0.00 1016.1
20260507040038 72 9 0.0 0.0 0.00 0.00 0.00 1 1016.0
20260507034527 73 4 0.0 0.0 0.00 0.00 0.00 1 1015.9
20260507033022 73 4 0.0 0.0 0.00 0.00 0.00 1 1015.8
20260507031518 74 4 0.0 0.0 0.00 0.00 0.00 1 1015.7
20260507030016 74 4 0.0 0.0 0.00 0.00 0.00 1 1015.8
20260507024509 74 4 0.0 0.0 0.00 0.00 0.00 1 1015.7
20260507023004 75 4 0.0 0.0 0.00 0.00 0.00 1 1015.7
20260507021641 75 4 0.0 0.0 0.00 0.00 0.00 1 1015.6
20260507020110 75 4 0.0 0.0 0.00 0.00 0.00 1 1015.7
20260507014618 76 4 0.0 0.0 0.00 0.00 0.00 1 1015.6
20260507013049 76 4 0.0 0.0 0.00 0.00 0.00 1 1015.5
20260507011551 76 4 0.0 0.0 0.00 0.00 0.00 1 1015.5
20260507010043 77 4 0.0 0.0 0.00 0.00 0.00 1 1015.6
20260507004532 77 1 0.0 0.0 0.00 0.00 0.00 1 1015.5
20260507003028 78 1 0.0 0.0 0.00 0.00 0.00 1 1015.5
20260507001528 78 21 0.0 0.0 0.00 0.00 0.00 1 1015.6
20260507000025 79 8 0.0 0.0 0.00 0.00 0.00 21 1015.5
20260506234515 80 341 0.0 0.0 0.00 0.00 0.00 47 1015.5
20260506233011 81 350 0.0 0.0 0.00 0.00 0.00 64 1015.4
20260506231507 82 288 0.0 1.0 0.00 0.00 0.00 64 1015.4
20260506230001 83 138 0.0 1.0 0.00 0.00 0.00 63 1015.3
20260506224557 83 69 0.0 0.0 0.00 0.00 0.00 60 1015.4
20260506223053 84 28 0.0 0.0 0.00 0.00 0.00 60 1015.3
20260506221556 86 318 0.0 0.0 0.00 0.00 0.00 61 1015.4
20260506220046 86 62 0.0 0.0 0.00 0.00 0.00 60 1015.3
20260506214538 87 50 0.0 0.0 0.00 0.00 0.00 61 1015.3
20260506213041 88 46 0.0 0.0 0.00 0.00 0.00 62 1015.3
20260506211539 88 32 0.0 0.0 0.00 0.00 0.00 62 1015.3
20260506210033 90 25 0.0 0.0 0.00 0.00 0.00 61 1015.2
20260506204523 90 335 0.0 1.0 0.00 0.00 0.00 59 1015.2
20260506203016 90 160 0.0 0.0 0.00 0.00 0.00 58 1015.3
20260506201511 90 349 0.0 1.0 0.00 0.00 0.00 58 1015.3
20260506200010 91 83 0.0 0.0 0.00 0.00 0.00 59 1015.4
20260506194502 91 259 0.0 0.0 0.00 0.00 0.00 60 1015.4
20260506193100 91 360 0.0 2.0 0.00 0.00 0.00 60 1015.6
20260506191600 91 289 0.0 1.0 0.00 0.00 0.00 59 1015.5
20260506190052 92 220 0.0 1.0 0.00 0.00 0.00 60 1015.6
20260506184546 91 305 0.0 0.0 0.00 0.00 0.00 59 1016.0
20260506183042 92 41 0.0 1.0 0.00 0.00 0.00 59 1016.3
20260506181555 93 146 0.0 0.0 0.00 0.00 0.00 59 1016.4
20260506180035 92 325 0.0 1.0 0.00 0.00 0.00 60 1016.4
20260506174534 92 33 0.0 1.0 0.00 0.00 0.00 59 1016.5
20260506173046 92 2 0.0 1.0 0.00 0.00 0.00 59 1016.6
20260506171520 93 39 0.0 1.0 0.00 0.00 0.00 59 1016.6
20260506170015 92 23 0.0 1.0 0.00 0.00 0.00 59 1016.8
20260506164511 90 230 0.0 0.0 0.00 0.00 0.00 61 1016.8
20260506163012 92 34 0.0 1.0 0.00 0.00 0.00 57 1016.9
20260506161502 90 113 0.0 2.0 0.00 0.00 0.00 59 1016.9
20260506160057 88 195 0.0 2.0 0.00 0.00 0.00 59 1016.9
20260506154611 90 126 0.0 1.0 0.00 0.00 0.00 59 1016.9
20260506153052 89 226 0.0 1.0 0.00 0.00 0.00 62 1017.0
20260506151544 88 174 0.0 1.0 0.00 0.00 0.00 62 1017.0
20260506150039 87 228 0.0 0.0 0.00 0.00 0.00 62 1017.0
20260506144543 86 232 0.0 0.0 0.00 0.00 0.00 59 1016.9
20260506143034 84 190 0.0 1.0 0.00 0.00 0.00 55 1016.8
20260506141525 84 174 0.0 0.0 0.00 0.00 0.00 47 1016.9
20260506140023 82 144 0.0 1.0 0.00 0.00 0.00 40 1016.8
20260506134518 82 186 0.0 1.0 0.00 0.00 0.00 17 1016.9
20260506133012 81 157 0.0 0.0 0.00 0.00 0.00 1 1016.8
20260506131509 79 187 0.0 1.0 0.00 0.00 0.00 1 1016.7
20260506130005 79 123 0.0 0.0 0.00 0.00 0.00 1 1016.7
20260506124559 77 75 0.0 1.0 0.00 0.00 0.00 1 1016.6
20260506123054 75 170 0.0 0.0 0.00 0.00 0.00 1 1016.6
20260506121550 73 188 0.0 0.0 0.00 0.00 0.00 1 1016.3
20260506120045 70 128 0.0 0.0 0.00 0.00 0.00 1 1016.3
20260506114546 69 108 0.0 0.0 0.00 0.00 0.00 1 1016.1
20260506113037 69 160 0.0 0.0 0.00 0.00 0.00 1 1016.0
20260506111533 0 0.0 0.0 0.00 0.00 0.00 1016.0
20260506110028 0 0.0 0.0 0.00 0.00 0.00 1015.6
20260506104548 0 0.0 0.0 0.00 0.00 0.00 1015.6
20260506103019 0 0.0 0.0 0.00 0.00 0.00 1015.4